#timestamp,LO_Frequency,Hit,StdDev 
1697670015.2,286047004.9,N
1697670035.1,286047007.4,N
1697670036.0,286047007.4,N
1697670055.8,286047008.6,N
1697670075.6,286047009.0,N
1697670095.5,286047007.3,N
1697670115.3,286047007.2,N
1697670135.2,286047004.9,N
1697670155.9,286047005.5,N
1697670175.7,286047005.2,N
1697670195.6,286047004.7,N
1697670215.4,286047007.1,N
1697670235.2,286047007.3,N
1697670255.1,286047006.4,N
1697670256.0,286047006.4,N
1697670275.8,286047008.9,N
1697670295.7,286047007.7,N
1697670315.5,286047007.8,N
1697670335.3,286047010.2,Y
1697670355.2,286047005.3,P
1697670375.0,286047003.9,P
1697670375.9,286047003.9,P
1697670395.8,286047004.4,Y
1697670415.6,286046998.4,P
1697670435.4,286047001.8,N
1697670455.3,286047003.5,N
1697670475.1,286047001.4,N
1697670495.8,286047001.9,N
1697670515.7,286047002.6,N
1697670535.5,286047001.5,N
1697670555.4,286047003.5,N
1697670575.2,286047003.2,N
1697670595.0,286047004.3,N
1697670595.9,286047004.3,N
1697670615.8,286047003.8,N
1697670635.6,286047006.0,Y
1697670655.5,286047002.6,P
1697670675.3,286047002.5,P
1697670695.1,286047001.4,P
1697670715.9,286047001.4,N
1697670735.7,286047001.3,N
1697670755.5,286047004.1,Y
1697670775.4,286046999.8,P
1697670795.2,286047001.7,N
1697670815.1,286047002.1,N
1697670816.0,286047002.1,N
1697670835.8,286047002.7,Y
1697670855.6,286046999.5,P
1697670875.5,286046996.8,P
1697670895.3,286046997.0,N
1697670915.1,286046996.8,N
1697670935.9,286046995.3,N
1697670955.7,286046995.2,N
1697670975.6,286046995.8,N
1697670995.4,286046996.0,N
1697671015.2,286046995.4,N
1697671035.1,286046997.5,N
1697671036.0,286046997.5,N
1697671055.8,286046997.2,N
1697671075.7,286046997.7,N
1697671095.5,286046997.8,N
1697671115.3,286046999.1,N
1697671135.2,286046998.7,N
1697671155.9,286046998.7,N
1697671175.7,286047000.4,N
1697671195.6,286047000.2,N
1697671215.4,286046999.9,N
1697671235.2,286047000.3,N
1697671255.1,286047001.2,N
1697671256.0,286047001.2,N
1697671275.8,286047000.3,N
1697671295.7,286047002.3,N
1697671315.5,286047002.8,N
1697671335.3,286047000.4,N
1697671355.2,286047002.8,N
1697671375.0,286046999.8,N
1697671375.9,286046999.8,N
1697671395.8,286046999.9,N
1697671415.6,286047002.6,N
1697671435.4,286046999.9,N
1697671455.3,286047000.0,N
1697671475.1,286047000.9,N
1697671476.0,286047000.9,N
1697671495.8,286046998.5,N
1697671515.7,286047000.9,N
1697671535.5,286047001.1,N
1697671555.4,286046999.4,N
1697671575.2,286046997.1,N
1697671595.0,286046999.5,N
1697671595.9,286046999.5,N
1697671615.8,286046999.1,N
1697671635.6,286046998.8,N
1697671655.4,286046998.1,N
1697671675.3,286046998.1,N
1697671695.1,286046998.7,N
1697671715.9,286047001.1,N
1697671735.7,286047000.7,N
1697671755.5,286047001.2,N
1697671775.4,286047000.5,N
1697671795.2,286046999.9,N
1697671815.0,286047002.8,N
1697671815.9,286047002.8,N
1697671835.8,286047000.9,N
1697671855.6,286047002.4,N
1697671875.5,286047000.0,N
1697671895.3,286047002.7,N
1697671915.1,286047002.0,N
1697671935.9,286047001.3,N
1697671955.7,286047003.8,N
1697671975.5,286047005.6,Y
1697671995.4,286047003.6,P
1697672015.2,286047001.8,N
1697672035.1,286047002.7,N
1697672036.0,286047002.7,N
1697672055.8,286046999.8,N
1697672075.6,286047000.1,N
1697672095.5,286047000.2,N
1697672115.3,286047002.4,N
1697672135.1,286047002.6,N
1697672155.9,286047004.0,Y
1697672175.7,286047001.9,P
1697672195.6,286047001.9,P
1697672215.4,286047002.1,P
1697672235.2,286047003.9,Y
1697672255.1,286047002.6,P
1697672256.0,286047002.6,P
1697672275.8,286047002.8,P
1697672295.7,286047000.4,N
1697672315.5,286047000.2,N
1697672335.3,286046999.9,N
1697672355.2,286047000.6,N
1697672375.0,286047000.5,N
1697672375.9,286047000.5,N
1697672395.8,286047002.8,N
1697672415.6,286047002.6,N
1697672435.4,286047001.5,N
1697672455.3,286047003.1,N
1697672475.1,286047001.8,N
1697672495.9,286047000.0,N
1697672515.7,286046999.7,N
1697672535.5,286046999.7,N
1697672555.4,286047002.7,N
1697672575.2,286047002.3,N
1697672595.0,286047002.5,N
1697672595.9,286047002.5,N
1697672615.8,286047001.6,N
1697672635.6,286047004.4,Y
1697672655.5,286047002.2,P
1697672675.3,286046999.7,N
1697672695.1,286047002.7,N
1697672715.9,286047001.9,N
1697672735.7,286047001.5,N
1697672755.5,286047001.8,N
1697672775.4,286047001.4,N
1697672795.2,286047001.5,N
1697672815.1,286047004.4,Y
1697672816.0,286047004.4,P
1697672835.8,286047001.9,N
1697672855.6,286047002.1,N
1697672875.5,286047003.7,Y
1697672895.3,286047000.0,P
1697672915.2,286047000.5,N
1697672935.9,286047000.9,N
1697672955.7,286047000.0,N
1697672975.6,286047002.7,N
1697672995.4,286047001.7,N
1697673015.2,286047003.4,Y
1697673035.1,286047003.5,P
1697673036.0,286047003.5,N
1697673055.8,286047001.9,N
1697673075.7,286047000.2,N
1697673095.5,286046998.5,N
1697673115.3,286047000.6,N
1697673135.2,286047001.2,N
1697673155.0,286047000.4,N
1697673155.9,286047000.4,N
1697673175.8,286046999.9,N
1697673195.6,286047002.4,N
1697673215.4,286047003.7,N
1697673235.3,286047003.1,N
1697673255.1,286047003.3,N
1697673275.8,286047004.0,N
1697673295.7,286047001.7,N
1697673315.5,286047004.3,N
1697673335.4,286047003.8,N
1697673355.2,286047003.5,N
1697673375.0,286047003.5,N
1697673375.9,286047003.5,N
1697673395.8,286047003.2,N
1697673415.6,286047005.5,Y
1697673435.4,286047001.6,P
1697673455.3,286047002.8,P
1697673475.1,286047000.6,N
1697673495.9,286047001.0,N
1697673515.7,286047000.6,N
1697673535.5,286047001.1,N
1697673555.4,286047000.5,N
1697673575.2,286047000.2,N
1697673595.0,286046999.8,N
1697673596.0,286046999.8,N
